Regional Weather Roundup
Issued by NWS

Home | Current Version | Previous Version | Graphics & Text | Print | Product List | Glossary On
Versions: 1 2 3 4 5 6 7 8 9 10 11 12 13 14 15 16 17 18 19 20 21 22 23 24 25 26 27 28 29 30 31 32 33 34 35 36 37 38 39 40 41 42 43 44 45 46 47 48 49 50
000
ASUS43 KMPX 221401
RWRMN
WEATHER ROUNDUP FOR MINNESOTA
NATIONAL WEATHER SERVICE TWIN CITIES/CHANHASSEN MN
900 AM CDT THU JUN 22 2017


NOTE: "FAIR" INDICATES FEW OR NO CLOUDS BELOW 12,000 FEET WITH NO
SIGNIFICANT WEATHER AND/OR OBSTRUCTIONS TO VISIBILITY. N/A MEANS
CURRENT SKY AND/OR WEATHER CONDITIONS ARE NOT AVAILABLE.

MNZ060>063-068>070-221500-
   Twin Cities Metro

CITY           SKY/WX    TMP DP  RH WIND       PRES   REMARKS
TWIN CITIES    CLOUDY    72  65  78 NE8       29.69F
ST PAUL        CLOUDY    71  67  87 NE7       29.68F
CRYSTAL        CLOUDY    70  61  73 NE9       29.69F
BLAINE         PTSUNNY   72  66  83 NE7       29.68R
LAKEVILLE      PTSUNNY   70  70 100 CALM      29.73R
EDEN PRAIRIE   CLOUDY    72  64  76 NE10      29.70F
SOUTH ST PAUL  CLOUDY    71  65  80 N7        29.69F
LAKE ELMO      FAIR      70  64  83 NE7       29.70F
$$
MNZ001>005-007-008-013>017-022>024-027-028-221500-
   Northwest Minnesota

CITY           SKY/WX    TMP DP  RH WIND       PRES   REMARKS
BEMIDJI        CLOUDY    63  51  66 NW5       29.71F
HALLOCK        CLOUDY    57  50  77 SW5       29.68S
ROSEAU         CLOUDY    61  50  67 W7        29.68R
WARROAD        CLOUDY    59  50  72 SW7       29.67S
CROOKSTON      DRIZZLE   57  52  82 SW6       29.73S
FOSSTON        CLOUDY    57  54  88 CALM      29.73F
DETROIT LAKES  CLOUDY    63  52  67 NW5       29.75S
MOORHEAD       CLOUDY    64  52  63 NW5       29.75R
PARK RAPIDS    CLOUDY    65  51  60 W6        29.73R
MAHNOMEN       FAIR      63  53  69 W6        29.74R
$$
MNZ006-009>011-018-025>026-221500-
   North Central Minnesota

CITY           SKY/WX    TMP DP  RH WIND       PRES   REMARKS
BAUDETTE       CLOUDY    60  50  69 SW6       29.67R
FLAG ISLAND    CLOUDY    59  50  72 SW9       29.63S
INTL FALLS     SUNNY     64  52  64 W7        29.67S
WASKISH        CLOUDY    64  50  59 W9        29.70S
BIG FORK       CLOUDY    66  54  63 W3        29.69F
LONGVILLE      CLOUDY    64  54  68 NW3       29.71R
GRAND RAPIDS   CLOUDY    65  55  70 NW6       29.72S
CRANE LAKE     SUNNY     64  54  68 SW3       29.69R
ORR            SUNNY     64  54  68 W6        29.66S
COOK           SUNNY     64  55  72 W6        29.70S
WALKER         FAIR      63  52  68 W6        29.73R
$$
MNZ012-019>021-037-221500-
   Northeast Minnesota

CITY           SKY/WX    TMP DP  RH WIND       PRES   REMARKS
DULUTH         CLOUDY    64  55  72 NW3       29.69F
ELY            CLOUDY    64  52  63 NW5       29.68F
HIBBING        CLOUDY    65  56  72 NW8       29.70S
EVELETH        CLOUDY    64  53  66 NW7       29.71S
DULUTH HARBOR  CLOUDY    61  55  82 S9        29.70S
TWO HARBORS    CLOUDY    66  61  82 SW3       29.66F
SILVER BAY     CLOUDY    66  61  82 CALM      29.65S
GRAND MARAIS     N/A     48  47  96 W10       29.65S
G MARAIS ARPRT MOSUNNY   63  54  72 W5        29.67R
$$
MNZ029>031-032-039>041-046>048-054>057-064-221500-
   West Central Minnesota

CITY           SKY/WX    TMP DP  RH WIND       PRES   REMARKS
FERGUS FALLS   CLOUDY    64  57  77 CALM      29.71F
WHEATON        LGT RAIN  63  55  77 NW3       29.75R
MORRIS         CLOUDY    64  61  88 CALM      29.71R
ALEXANDRIA     CLOUDY    64  58  80 N6        29.73F
ELBOW LAKE     FAIR      63  60  89 CALM      29.73S
WADENA         CLOUDY    63  57  82 CALM      29.74R
GLENWOOD       LGT RAIN  63  59  88 NE5       29.72S
APPLETON       RAIN      61  57  88 NE3       29.69F
BENSON         RAIN      61  57  88 NE3       29.72F
ORTONVILLE     RAIN      61  57  88 NW5       29.73R
MADISON        LGT RAIN  63  63 100 N10       29.69R
WILLMAR        RAIN      63  61  94 NE8       29.70F
$$
MNZ033>034-036-042>043-049>051-058-059-221500-
   Central Minnesota

CITY           SKY/WX    TMP DP  RH WIND       PRES   REMARKS
ST CLOUD       RAIN      60  58  92 SE3       29.73R FOG
SAUK CENTRE    PTSUNNY   62  59  91 CALM      29.71F
PAYNESVILLE    RAIN      60  60 100 E6        29.72F
AITKIN         CLOUDY    64  55  72 S5        29.71R
PINE RIVER     CLOUDY    63  57  82 CALM      29.77R
BRAINERD       CLOUDY    64  54  69 CALM      29.74R
STAPLES        CLOUDY    61  57  88 CALM      29.74S
LONG PRAIRIE   FAIR      61  59  94 CALM      29.73F
LITTLE FALLS   CLOUDY    63  55  77 CALM      29.72S
LITCHFIELD     LGT RAIN  66  57  72 NE7       29.69F
BUFFALO        CLOUDY    68  58  68 NE5       29.72R
MAPLE LAKE     LGT RAIN  67  60  78 NE5       29.72S
HUTCHINSON     CLOUDY    68  62  81 NE10      29.70F
$$
MNZ037-044-045-052-053-221500-
   East Central Minnesota

CITY           SKY/WX    TMP DP  RH WIND       PRES   REMARKS
PRINCETON      LGT RAIN  64  61  88 NW3       29.73R
MORA           LGT RAIN  59  55  88 E6        29.68F
CAMBRIDGE      RAIN      66  59  77 CALM      29.67F
RUSH CITY      RAIN      64  61  88 E3        29.69S
MOOSE LAKE     CLOUDY    64  57  77 CALM      29.70S
HINCKLEY       LGT RAIN  63  63 100 NW7       29.71F
CLOQUET        CLOUDY    63  55  77 S3        29.70S
MCGREGOR       CLOUDY    63  57  82 S5        29.73R
$$
MNZ071>073-080-081-089-090-097-098-221500-
   Southwest Minnesota

CITY           SKY/WX    TMP DP  RH WIND       PRES   REMARKS
MONTEVIDEO     RAIN      61  57  88 E14       29.66F
GRANITE FALLS  LGT RAIN  65  61  85 E8        29.69F
CANBY          CLOUDY    62  60  94 CALM      29.73R
MARSHALL       CLOUDY    67  65  93 SE6       29.70R
REDWOOD FALLS  CLOUDY    68  62  81 NE7       29.70R
OLIVIA         CLOUDY    68  59  73 E8        29.69S
PIPESTONE      CLOUDY    64  63  94 E8        29.72R
WINDOM         CLOUDY    66  63  88 NE6G18    29.73R
WORTHINGTON    TSTM      63  62  97 NE8       29.77R
JACKSON        CLOUDY    68  63  83 VRB6G18   29.79R VSB 3/4
TRACY          CLOUDY    68  68 100 E7        29.71R FOG
SLAYTON        CLOUDY    65  60  84 NE8       29.74S
$$
MNZ065>067-074>077-082>085-091>093-221500-
   South Central Minnesota

CITY           SKY/WX    TMP DP  RH WIND       PRES   REMARKS
MANKATO        CLOUDY    72  69  90 E5        29.72R
NEW ULM        TSTM      68  64  88 NE10      29.72R
ST JAMES       CLOUDY    72  66  83 N14       29.74R
FAIRMONT       TSTM      70  67  90 VRB3      29.71R
GLENCOE        CLOUDY    69  67  94 NE5       29.70S
FARIBAULT      CLOUDY    72  70  94 CALM      29.73R
OWATONNA       CLOUDY    72  66  83 SE7       29.73R
WASECA         CLOUDY    72  66  83 E9        29.72R
ALBERT LEA     CLOUDY    72  64  78 S8        29.71S
$$
MNZ078>079-086>088-094>096-221500-
   Southeast Minnesota

CITY           SKY/WX    TMP DP  RH WIND       PRES   REMARKS
ROCHESTER      LGT RAIN  72  65  78 S13G25    29.72R
RED WING       CLOUDY    72  66  83 CALM      29.68S
STANTON        CLOUDY    72  68  88 CALM      29.70R
DODGE CENTER   CLOUDY    72  64  78 SE7       29.72F
WINONA         CLOUDY    73  64  73 SW8       29.72R
AUSTIN         CLOUDY    72  64  78 S10G16    29.71F
PRESTON        CLOUDY    71  63  76 SW13      29.74S
$$
ABBREVIATIONS USED IN REMARKS
   TC - TEMPERATURES IN CELSIUS
  WCI - WIND CHILL INDEX
   HX - HEAT INDEX
  VSB - VISIBILITY
$$




USA.gov is the U.S. government's official web portal to all federal, state and local government web resources and services.